FW2255 Weather Reports


time (UTC)temp
C
wind
direction
speed
KPH
gust
KPH
rain 1hr
cm
rain 24hr
cm
rain mn
cm
humidity
%
barometer
mb
20260504215556 23 156 1.6 4.8 0.00 0.00 0.00 28 1010.0
20260504215055 23 155 1.6 4.8 0.00 0.00 0.00 30 1010.0
20260504214602 23 155 1.6 8.0 0.00 0.00 0.00 29 1010.0
20260504214055 23 155 1.6 8.0 0.00 0.00 0.00 29 1010.1
20260504213555 23 155 3.2 8.0 0.00 0.00 0.00 27 1010.1
20260504213105 23 155 1.6 9.7 0.00 0.00 0.00 29 1010.2
20260504212555 23 154 1.6 9.7 0.00 0.00 0.00 27 1010.2
20260504212059 23 150 3.2 9.7 0.00 0.00 0.00 29 1010.2
20260504211604 23 161 6.4 9.7 0.00 0.00 0.00 28 1010.3
20260504211055 23 157 4.8 8.0 0.00 0.00 0.00 28 1010.2
20260504210555 23 167 1.6 8.0 0.00 0.00 0.00 29 1010.2
20260504210104 23 146 4.8 9.7 0.00 0.00 0.00 27 1010.2
20260504205653 23 161 4.8 12.9 0.00 0.00 0.00 30 1010.2
20260504205058 23 162 4.8 12.9 0.00 0.00 0.00 27 1010.1
20260504204639 23 161 4.8 11.3 0.00 0.00 0.00 28 1010.3
20260504204055 23 153 4.8 11.3 0.00 0.00 0.00 27 1010.3
20260504203555 23 144 4.8 9.7 0.00 0.00 0.00 27 1010.3
20260504203059 23 152 3.2 11.3 0.00 0.00 0.00 25 1010.1
20260504202555 23 156 4.8 12.9 0.00 0.00 0.00 26 1010.3
20260504202056 23 155 6.4 12.9 0.00 0.00 0.00 28 1010.3
20260504201602 23 146 3.2 9.7 0.00 0.00 0.00 25 1010.4
20260504201055 23 148 4.8 9.7 0.00 0.00 0.00 27 1010.3
20260504200555 23 155 3.2 9.7 0.00 0.00 0.00 26 1010.5
20260504200057 23 154 1.6 8.0 0.00 0.00 0.00 24 1010.5
20260504195555 24 154 3.2 8.0 0.00 0.00 0.00 26 1010.6
20260504195058 24 149 0.0 9.7 0.00 0.00 0.00 25 1010.7
20260504194558 24 149 1.6 9.7 0.00 0.00 0.00 25 1010.7
20260504194055 24 148 3.2 11.3 0.00 0.00 0.00 24 1010.8
20260504193559 24 0 1.6 11.3 0.00 0.00 0.00 20 1010.8
20260504193056 24 182 3.2 9.7 0.00 0.00 0.00 24 1011.1
20260504192555 24 157 3.2 8.0 0.00 0.00 0.00 26 1011.0
20260504192055 23 0 1.6 8.0 0.00 0.00 0.00 22 1011.0
20260504191559 24 167 3.2 8.0 0.00 0.00 0.00 23 1011.1
20260504191055 24 169 1.6 6.4 0.00 0.00 0.00 23 1011.1
20260504190554 23 169 0.0 8.0 0.00 0.00 0.00 25 1011.3
20260504185555 23 144 1.6 8.0 0.00 0.00 0.00 26 1011.5
20260504185055 23 144 3.2 8.0 0.00 0.00 0.00 24 1011.6
20260504184605 23 148 1.6 9.7 0.00 0.00 0.00 28 1011.6
20260504184056 23 148 3.2 9.7 0.00 0.00 0.00 27 1011.8
20260504183556 23 175 1.6 8.0 0.00 0.00 0.00 26 1011.9
20260504183101 23 0 1.6 8.0 0.00 0.00 0.00 26 1012.0
20260504182558 23 165 3.2 8.0 0.00 0.00 0.00 27 1012.1
20260504182055 23 182 1.6 8.0 0.00 0.00 0.00 26 1012.2
20260504181559 23 149 3.2 8.0 0.00 0.00 0.00 25 1012.2
20260504181055 23 158 0.0 8.0 0.00 0.00 0.00 25 1012.3
20260504180557 23 158 3.2 8.0 0.00 0.00 0.00 26 1012.3
20260504180055 22 158 3.2 8.0 0.00 0.00 0.00 28 1012.4
20260504175557 22 150 1.6 8.0 0.00 0.00 0.00 28 1012.4
20260504175055 22 148 0.0 9.7 0.00 0.00 0.00 26 1012.5
20260504174555 22 148 3.2 9.7 0.00 0.00 0.00 26 1012.6
20260504174055 22 158 4.8 9.7 0.00 0.00 0.00 28 1012.7
20260504173555 22 158 3.2 8.0 0.00 0.00 0.00 28 1012.6
20260504173056 22 160 4.8 8.0 0.00 0.00 0.00 28 1012.8
20260504172554 22 147 3.2 8.0 0.00 0.00 0.00 28 1012.9
20260504172055 22 144 4.8 8.0 0.00 0.00 0.00 27 1012.9
20260504171555 21 147 3.2 9.7 0.00 0.00 0.00 29 1013.0
20260504171056 21 140 3.2 9.7 0.00 0.00 0.00 26 1013.0
20260504170555 21 156 3.2 9.7 0.00 0.00 0.00 29 1013.2
20260504151055 18 159 3.2 6.4 0.00 0.00 0.00 36 1014.4
20260504150557 18 159 1.6 6.4 0.00 0.00 0.00 38 1014.5
20260504141054 15 0 1.6 4.8 0.00 0.00 0.00 44 1014.7
20260504140555 15 0 0.0 4.8 0.00 0.00 0.00 47 1014.7
20260504130559 11 0 0.0 0.0 0.00 0.00 0.00 48 1015.4
20260504110554 8 0 0.0 0.0 0.00 0.00 0.00 57 1015.7
20260504100554 9 0 0.0 0.0 0.00 0.00 0.00 52 1015.5
20260504081555 10 0 0.0 0.0 0.00 0.00 0.00 48 1016.0
20260504081054 10 0 0.0 0.0 0.00 0.00 0.00 49 1015.9
20260504080554 10 0 0.0 0.0 0.00 0.00 0.00 49 1016.0
20260504050557 8 0 0.0 0.0 0.00 0.00 0.00 57 1016.1
20260504045556 8 0 0.0 0.0 0.00 0.00 0.00 57 1016.1
20260504045056 8 0 0.0 0.0 0.00 0.00 0.00 58 1016.2
20260504044603 8 0 0.0 0.0 0.00 0.00 0.00 57 1016.2
20260504044056 8 0 0.0 0.0 0.00 0.00 0.00 56 1016.2
20260504043556 8 0 0.0 0.0 0.00 0.00 0.00 56 1016.1
20260504043057 8 0 0.0 0.0 0.00 0.00 0.00 56 1016.1
20260504042556 8 0 0.0 0.0 0.00 0.00 0.00 56 1016.0
20260504042055 7 0 0.0 0.0 0.00 0.00 0.00 56 1015.9
20260504041556 7 0 0.0 0.0 0.00 0.00 0.00 56 1015.9
20260504041055 7 0 0.0 0.0 0.00 0.00 0.00 56 1015.9
20260504040600 7 0 0.0 0.0 0.00 0.00 0.00 55 1015.9
20260504040058 7 0 0.0 0.0 0.00 0.00 0.00 55 1015.9
20260504035556 7 0 0.0 0.0 0.00 0.00 0.00 54 1016.1
20260504035056 8 0 0.0 0.0 0.00 0.00 0.00 54 1016.2
20260504034611 8 0 0.0 0.0 0.00 0.00 0.00 53 1016.2
20260504034056 8 0 0.0 0.0 0.00 0.00 0.00 53 1016.1
20260504033556 8 0 0.0 0.0 0.00 0.00 0.00 52 1016.1
20260504033100 8 0 0.0 0.0 0.00 0.00 0.00 52 1016.0
20260504032556 8 0 0.0 0.0 0.00 0.00 0.00 51 1016.0
20260504032056 8 0 0.0 0.0 0.00 0.00 0.00 51 1016.0
20260504031603 8 0 0.0 0.0 0.00 0.00 0.00 50 1015.9
20260504031056 8 0 0.0 0.0 0.00 0.00 0.00 49 1016.0
20260504030556 8 0 0.0 0.0 0.00 0.00 0.00 49 1016.1
20260504025556 8 0 0.0 0.0 0.00 0.00 0.00 47 1015.9
20260504025056 8 0 0.0 0.0 0.00 0.00 0.00 47 1015.9
20260504024608 8 0 0.0 0.0 0.00 0.00 0.00 46 1015.9
20260504024055 8 0 0.0 0.0 0.00 0.00 0.00 45 1015.8
20260504023556 9 0 0.0 0.0 0.00 0.00 0.00 45 1015.9
20260504023100 9 0 0.0 0.0 0.00 0.00 0.00 44 1015.9
20260504022556 9 0 0.0 0.0 0.00 0.00 0.00 44 1015.9
20260504022056 9 0 0.0 0.0 0.00 0.00 0.00 43 1015.9
20260504021557 9 0 0.0 0.0 0.00 0.00 0.00 43 1015.8
20260504021057 9 0 0.0 0.0 0.00 0.00 0.00 43 1015.7
20260504020557 9 0 0.0 0.0 0.00 0.00 0.00 42 1015.8
20260504020056 10 0 0.0 0.0 0.00 0.00 0.00 41 1015.8
20260504015556 10 0 0.0 0.0 0.00 0.00 0.00 41 1015.7
20260504015056 10 0 0.0 0.0 0.00 0.00 0.00 40 1015.7
20260504014606 10 0 0.0 0.0 0.00 0.00 0.00 40 1015.6
20260504014055 10 0 0.0 0.0 0.00 0.00 0.00 40 1015.5
20260504013557 10 0 0.0 0.0 0.00 0.00 0.00 39 1015.5
20260504013056 10 0 0.0 0.0 0.00 0.00 0.00 40 1015.4
20260504012556 10 0 0.0 1.6 0.00 0.00 0.00 40 1015.4
20260504012056 10 0 0.0 1.6 0.00 0.00 0.00 39 1015.2
20260504011559 11 0 0.0 0.0 0.00 0.00 0.00 39 1015.3
20260504011055 11 0 0.0 0.0 0.00 0.00 0.00 38 1015.1
20260504010555 11 0 0.0 0.0 0.00 0.00 0.00 38 1015.1
20260504010100 11 0 0.0 0.0 0.00 0.00 0.00 37 1015.1
20260504005555 11 0 0.0 0.0 0.00 0.00 0.00 36 1015.1
20260504005055 11 0 0.0 0.0 0.00 0.00 0.00 36 1015.1
20260504004558 12 0 0.0 0.0 0.00 0.00 0.00 36 1015.0
20260504004056 12 0 0.0 0.0 0.00 0.00 0.00 35 1015.1
20260504003558 12 0 0.0 0.0 0.00 0.00 0.00 35 1015.0
20260504003100 12 0 0.0 0.0 0.00 0.00 0.00 37 1014.9
20260504002556 13 0 0.0 0.0 0.00 0.00 0.00 31 1014.9
20260504002057 13 0 0.0 0.0 0.00 0.00 0.00 30 1014.9
20260504001604 13 0 0.0 0.0 0.00 0.00 0.00 30 1014.9
20260504001057 13 0 0.0 0.0 0.00 0.00 0.00 29 1014.9
20260504000555 13 0 0.0 0.0 0.00 0.00 0.00 30 1014.8
20260504000058 14 0 0.0 0.0 0.00 0.00 0.00 31 1014.7
20260503235555 14 0 0.0 0.0 0.00 0.00 0.00 32 1014.7
20260503235057 15 0 0.0 0.0 0.00 0.00 0.00 30 1014.7
20260503234556 15 0 0.0 0.0 0.00 0.00 0.00 28 1014.7
20260503234056 15 0 0.0 0.0 0.00 0.00 0.00 27 1014.7
20260503233556 15 0 0.0 0.0 0.00 0.00 0.00 27 1014.6
20260503233054 15 0 0.0 0.0 0.00 0.00 0.00 27 1014.6
20260503232555 15 0 0.0 0.0 0.00 0.00 0.00 26 1014.5
20260503232058 16 0 0.0 1.6 0.00 0.00 0.00 28 1014.5
20260503231555 16 0 0.0 3.2 0.00 0.00 0.00 28 1014.5
20260503231056 16 0 0.0 3.2 0.00 0.00 0.00 25 1014.5
20260503230556 16 0 0.0 0.0 0.00 0.00 0.00 24 1014.5
20260503230058 16 0 0.0 0.0 0.00 0.00 0.00 28 1014.4
20260503225556 16 0 0.0 3.2 0.00 0.00 0.00 29 1014.4
20260503225056 16 0 0.0 3.2 0.00 0.00 0.00 29 1014.5
20260503224554 16 0 0.0 3.2 0.00 0.00 0.00 26 1014.5
20260503224056 16 0 0.0 3.2 0.00 0.00 0.00 25 1014.5
20260503223555 17 0 0.0 3.2 0.00 0.00 0.00 24 1014.5
20260503223057 17 306 1.6 3.2 0.00 0.00 0.00 24 1014.4
20260503222555 17 298 0.0 3.2 0.00 0.00 0.00 26 1014.4
20260503222056 17 0 0.0 3.2 0.00 0.00 0.00 20 1014.5
20260503221558 17 0 0.0 6.4 0.00 0.00 0.00 22 1014.6
20260503221055 17 0 0.0 6.4 0.00 0.00 0.00 17 1014.6
20260503220556 17 0 1.6 6.4 0.00 0.00 0.00 18 1014.6
20260503220059 17 0 0.0 6.4 0.00 0.00 0.00 19 1014.6